Theta_e
292 290 284 285 286 286 285 284 283 287 290 287 287 287 290 293 293 293 294 295 295 297 300 302 302 303 305 307 314 319 326 326 326 325 321 321 321 322 323 326 326 326 323 319
289 285 287 288 288 286 286 284 285 287 289 288 287 286 290 292 292 293 293 294 295 297 299 301 303 303 304 305 308 316 323 325 325 325 322 321 321 321 323 323 322 320 317 313
285 287 288 287 286 285 285 284 284 283 287 289 287 284 287 291 293 294 295 296 297 297 298 301 303 304 305 304 306 309 317 323 325 325 322 320 318 317 317 317 315 313 310 309
287 289 286 285 284 285 281 287 286 284 283 279 287 276 284 288 289 292 293 295 297 300 301 302 303 303 305 307 308 309 314 320 324 324 320 317 311 308 310 313 311 306 307 305
285 285 285 284 285 287 283 288 286 285 283 282 283 278 283 288 286 289 292 294 298 300 301 301 301 303 305 308 310 310 310 319 320 323 321 316 311 309 311 307 302 303 304 303
287 290 287 287 288 288 289 286 286 287 284 276 281 281 281 284 286 289 292 294 297 298 301 302 302 304 306 307 308 310 310 316 318 322 319 314 313 311 306 305 301 299 298 297
285 285 288 289 285 289 287 283 277 276 276 276 282 280 281 287 290 290 291 293 296 299 299 300 300 302 304 304 305 308 309 310 317 317 318 313 314 310 304 303 301 297 294 294
279 278 284 288 285 283 283 282 276 269 271 275 282 276 282 289 291 293 293 294 296 297 298 299 299 299 300 300 303 304 305 309 315 314 316 314 315 308 307 306 299 295 293 292
279 279 286 286 287 285 283 280 285 277 278 275 278 282 287 289 290 291 290 292 293 295 296 296 296 296 296 297 299 301 304 309 314 316 314 313 314 307 305 301 298 295 293 291
283 276 283 284 286 287 284 287 278 280 271 269 275 277 279 285 285 288 289 291 292 293 293 292 293 293 294 296 297 301 304 308 314 315 312 311 308 306 302 299 294 292 290 290
284 279 281 283 282 282 282 281 282 282 278 272 270 276 287 285 286 288 290 291 291 290 291 291 291 292 294 296 301 302 306 310 312 312 311 305 304 300 297 294 292 291 289 289
285 280 276 279 284 286 284 281 282 276 274 277 274 274 288 289 290 289 289 290 290 291 290 290 291 291 292 299 306 309 310 311 311 309 302 299 296 295 293 292 291 290 289 289
284 279 274 280 282 284 281 283 283 282 280 273 271 274 288 289 289 290 289 288 289 289 289 289 290 289 291 296 298 308 309 306 303 299 296 294 293 293 292 290 290 289 288 287
285 279 276 274 278 280 277 279 281 279 274 274 276 277 282 286 286 288 287 286 287 288 288 288 288 288 289 294 296 299 301 300 298 295 294 292 292 291 290 289 289 288 287 286
284 275 278 278 279 279 278 277 278 276 278 274 277 278 282 285 287 286 286 286 286 286 286 286 286 286 287 291 292 293 296 296 295 293 292 290 290 289 288 287 287 287 287 287
284 276 275 273 277 276 274 277 278 278 278 278 279 279 287 289 287 285 284 285 284 285 285 285 285 285 285 287 289 291 291 292 293 291 289 289 288 287 287 286 285 285 286 286
279 277 274 271 274 272 271 274 278 280 282 281 277 282 287 286 284 284 284 284 284 285 285 284 284 285 285 287 288 288 290 291 289 288 287 287 287 286 286 285 285 285 285 286
279 277 276 271 272 270 280 282 282 279 280 281 283 285 287 286 285 285 288 284 285 285 284 284 284 285 285 287 288 288 289 287 287 287 286 286 286 286 286 286 286 285 285 285
283 278 274 270 270 275 279 283 283 280 280 284 283 287 286 286 284 286 287 286 286 284 285 284 285 285 285 285 287 287 286 286 286 286 286 286 286 286 286 285 285 286 285 285
278 279 276 269 267 268 279 284 285 283 275 287 286 284 284 284 278 281 285 286 286 285 285 284 285 285 285 285 286 286 285 285 285 286 285 287 287 286 285 285 285 285 285 284
273 273 272 273 270 274 281 283 285 274 279 285 286 284 282 280 282 284 286 286 287 285 285 285 285 284 284 285 285 285 285 284 284 285 285 286 287 285 285 284 284 284 283 281
273 272 271 273 271 267 284 283 279 285 287 286 284 283 282 283 284 285 286 285 285 284 284 285 285 285 285 286 286 284 283 285 285 285 285 284 284 284 284 284 282 282 282 281
273 279 276 276 276 284 285 286 289 289 286 285 284 284 283 283 283 285 285 284 284 283 283 284 285 285 286 287 287 285 284 285 285 285 284 284 284 284 284 283 282 282 282 282
275 280 276 276 281 281 283 285 286 286 285 285 285 283 283 283 285 284 284 283 283 283 282 283 284 284 283 284 285 284 284 285 286 284 282 282 282 282 283 283 283 283 283 282
280 277 276 276 279 281 282 284 285 285 285 283 283 283 283 284 284 284 284 283 283 282 281 281 283 282 281 283 283 283 283 284 283 281 280 282 282 282 282 282 283 283 283 285
278 277 276 277 282 282 283 285 284 283 283 283 282 282 283 283 283 283 283 282 282 282 281 280 280 281 280 282 282 283 284 284 282 280 281 282 282 282 282 282 281 282 283 284
Wind_Speed
2 4 4 4 4 5 10 13 16 17 20 17 16 25 25 23 24 25 23 21 20 20 20 18 18 19 19 20 19 19 20 21 17 15 13 12 13 13 12 11 12 12 11 12
6 2 3 3 2 6 11 14 13 14 11 19 20 27 27 23 21 22 22 21 21 20 17 16 16 17 19 19 19 19 19 21 19 16 13 12 13 12 11 10 11 13 12 12
7 5 2 5 10 9 10 14 11 18 21 20 17 19 11 21 19 16 19 18 15 16 13 14 14 14 16 18 18 19 19 21 22 21 15 13 8 10 9 11 11 12 11 10
7 4 3 8 11 5 10 7 14 19 17 9 13 15 12 17 21 22 17 10 12 13 12 14 16 17 17 14 17 18 20 20 23 26 19 21 15 14 10 12 10 9 11 12
4 5 8 9 3 3 8 13 18 20 17 14 13 7 12 27 22 17 17 15 13 14 16 16 17 18 20 16 16 17 19 20 24 26 26 20 20 14 12 10 13 11 10 10
13 3 4 4 7 10 13 15 22 11 2 6 12 12 18 25 20 20 21 19 18 18 18 18 19 19 18 17 18 19 20 21 23 23 25 26 26 19 14 14 12 10 8 9
7 5 3 4 8 6 5 13 6 4 7 14 14 18 22 27 22 22 22 22 21 19 19 20 22 19 20 23 21 19 21 23 23 23 24 27 26 22 22 20 14 15 11 10
5 3 6 7 3 6 12 4 3 9 12 20 18 13 11 22 23 21 18 20 20 24 22 22 24 25 25 24 24 23 25 24 23 23 22 25 25 16 16 19 14 12 11 10
5 4 3 6 7 4 3 5 6 7 16 15 10 23 20 16 11 16 23 21 24 24 22 27 28 26 26 25 25 25 26 25 24 24 17 23 21 20 17 18 16 12 15 14
1 8 1 3 3 10 12 8 4 5 8 15 15 26 14 16 17 22 21 25 25 24 32 27 25 27 22 24 25 25 25 25 24 22 17 12 17 19 18 18 19 18 17 17
2 3 2 4 6 5 5 6 7 9 7 9 14 15 7 12 23 17 26 26 24 27 26 25 25 21 22 26 22 22 23 25 21 19 18 15 13 17 18 16 18 19 20 19
4 3 7 9 13 10 8 11 11 7 9 13 14 26 22 18 21 25 27 23 27 27 27 24 21 18 20 20 11 12 15 16 17 16 19 18 16 17 17 19 19 20 20 19
6 3 7 5 3 3 5 8 10 14 12 20 13 15 12 24 27 27 22 24 24 26 25 20 17 15 17 13 6 6 8 14 17 18 19 20 18 15 17 20 21 22 20 18
6 4 10 10 13 13 15 17 17 17 12 17 24 33 31 24 30 27 23 25 21 24 21 18 15 13 15 11 6 6 12 16 17 18 19 19 19 18 17 18 21 22 20 20
3 6 10 18 21 21 24 25 23 21 24 19 31 31 28 28 26 27 18 22 25 22 20 17 14 11 10 9 7 8 6 13 17 18 17 19 18 18 19 18 18 20 19 18
6 4 2 10 8 10 17 24 25 25 25 24 27 33 24 21 24 24 24 18 27 21 20 15 12 10 8 7 6 8 7 10 13 18 19 19 19 19 19 19 18 16 19 17
6 4 2 8 7 12 10 11 7 12 13 14 21 23 20 22 24 22 18 20 24 21 18 14 10 8 8 6 5 6 9 12 13 17 18 19 20 19 18 19 18 18 18 15
5 7 4 8 8 7 3 13 17 16 18 18 21 22 17 20 23 19 5 15 20 18 16 12 9 6 6 4 6 9 9 11 14 16 18 18 19 19 18 18 17 15 14 14
8 7 4 5 5 15 9 1 4 5 18 16 17 12 18 21 22 9 7 16 16 13 12 8 6 5 6 7 7 10 10 11 13 15 17 17 19 19 18 16 15 13 14 11
8 9 7 3 5 7 3 2 3 9 10 4 6 15 19 20 13 17 23 17 16 13 9 8 7 5 9 8 10 13 11 12 13 13 14 15 16 16 15 14 14 10 11 10
5 6 15 11 7 11 14 13 6 2 4 6 11 16 18 13 11 20 18 15 12 10 11 7 8 8 8 8 11 13 13 13 12 14 14 15 15 14 12 12 10 10 9 9
10 10 8 8 7 14 11 2 6 3 3 9 15 12 15 15 14 14 14 14 14 13 12 10 9 9 9 9 12 14 14 11 13 14 14 14 13 9 9 12 9 9 9 8
6 8 6 13 11 7 9 9 5 4 10 13 13 12 13 14 13 13 12 12 11 9 8 8 8 9 8 9 9 12 8 11 12 12 12 11 11 9 9 10 9 7 6 6
8 11 6 3 9 20 19 18 16 15 15 12 9 9 9 11 10 9 8 8 9 9 7 6 6 8 9 8 10 9 9 9 11 11 10 8 9 8 6 5 5 6 5 4
4 12 9 11 18 19 21 16 18 16 11 4 6 6 7 7 7 5 5 6 5 7 7 6 5 5 6 6 8 8 6 8 10 8 6 6 6 6 5 3 3 3 2 3
10 11 9 9 11 10 6 2 2 4 3 3 3 5 3 2 5 4 4 4 5 5 4 3 4 4 4 5 5 5 4 5 7 6 4 4 4 4 3 4 2 0 2 4
Wind_Direction
18 257 25 18 4 308 295 295 297 303 307 308 297 293 295 299 292 284 286 288 286 285 293 290 273 272 268 267 251 254 224 195 196 200 196 196 186 185 191 190 180 174 175 174
220 215 59 11 332 301 295 293 288 292 303 309 295 294 290 284 284 296 295 293 292 293 287 286 284 278 270 267 267 246 247 205 195 195 190 197 192 180 185 171 174 174 170 165
295 27 350 325 316 304 294 300 309 304 311 297 303 294 311 303 287 296 293 284 290 289 289 293 301 287 268 262 258 263 244 216 193 198 184 192 175 169 181 173 177 178 156 153
279 77 306 301 300 290 304 357 308 302 316 309 340 293 307 294 309 300 300 314 290 292 290 294 296 298 298 271 259 252 261 221 219 187 185 183 169 166 185 177 163 152 154 157
56 318 308 296 310 287 283 320 300 291 286 301 291 251 284 299 306 312 317 315 291 279 283 293 300 295 286 289 290 256 245 234 216 202 189 178 178 186 167 164 148 147 146 141
265 294 266 300 299 263 292 293 292 270 311 242 253 251 299 299 302 316 299 306 297 298 294 291 304 300 281 284 278 273 248 240 219 230 184 180 181 179 155 162 149 149 138 138
317 208 203 257 288 187 256 329 309 272 280 284 299 308 270 290 294 319 310 306 306 293 300 295 299 290 282 282 271 262 259 244 218 211 194 180 185 172 167 165 160 150 146 150
320 226 193 167 267 311 307 296 316 303 311 301 301 259 272 309 298 300 320 315 316 312 297 294 299 292 284 278 269 260 255 243 216 207 213 180 180 171 171 168 158 148 145 141
304 263 152 237 273 241 109 245 339 275 262 272 265 276 293 296 301 321 321 310 310 305 311 307 297 291 286 277 264 254 246 240 209 199 200 187 171 170 164 155 149 144 135 134
77 284 185 295 273 230 239 354 275 231 290 301 288 296 284 316 318 314 310 313 315 329 310 303 302 298 289 274 261 244 236 236 202 186 169 197 164 160 153 151 142 141 138 132
220 259 215 294 199 283 206 248 216 262 264 295 305 306 313 318 307 311 318 321 332 310 304 309 302 298 288 284 250 229 222 219 187 168 165 145 156 142 142 141 137 136 134 139
194 281 274 262 302 300 261 270 280 270 284 285 294 273 290 281 326 318 321 333 317 313 312 310 306 303 300 298 300 203 199 192 164 158 138 131 135 139 140 138 137 137 140 133
171 195 297 271 159 114 218 231 237 264 274 265 275 267 290 312 311 321 326 324 316 312 313 314 314 316 315 316 345 262 162 134 136 134 133 134 134 141 140 137 137 140 132 130
166 233 242 259 296 328 286 274 276 272 270 275 258 278 289 312 313 315 330 325 311 316 320 319 322 327 324 337 354 46 127 132 133 135 135 137 138 140 138 137 136 131 138 135
225 257 248 264 273 280 279 281 277 255 255 254 270 284 293 303 314 320 337 317 325 324 330 328 328 332 331 348 8 71 90 131 135 133 134 130 128 130 128 129 131 131 128 131
182 265 314 284 259 275 281 271 267 264 265 257 265 272 288 315 316 320 339 324 326 329 332 329 328 333 342 359 17 70 94 112 128 127 124 127 125 130 129 127 126 128 128 129
184 244 292 269 347 304 265 254 236 265 252 264 275 286 314 311 320 329 320 329 325 331 331 333 334 337 344 15 51 83 100 109 111 119 123 125 129 130 129 127 128 129 132 139
204 204 258 287 315 261 342 291 284 274 281 276 276 283 300 314 317 313 275 324 334 331 335 335 339 345 357 29 60 92 95 103 115 117 120 122 126 125 124 126 127 135 135 138
234 204 256 269 280 291 280 114 355 340 295 284 284 307 311 319 315 319 329 349 341 329 330 332 342 350 27 44 68 82 89 99 109 118 123 125 126 124 127 126 130 135 127 132
216 238 230 150 266 264 330 109 57 309 283 49 347 320 320 332 322 317 344 351 344 342 341 348 354 26 55 51 77 83 85 97 100 107 109 114 117 116 121 125 126 124 128 134
174 197 222 225 257 273 262 287 228 268 303 335 339 321 319 310 304 310 327 343 353 349 350 360 22 41 45 60 81 80 82 80 88 93 97 102 103 102 106 113 120 124 120 113
175 171 190 203 224 262 206 174 213 321 306 340 321 333 316 316 321 323 338 344 352 360 357 4 31 39 40 56 75 77 77 83 85 86 88 89 95 106 114 114 100 103 119 127
221 205 193 202 215 250 197 245 251 314 300 304 311 318 323 311 326 337 341 343 346 7 357 360 23 46 42 54 74 84 70 86 91 97 101 101 100 97 105 118 127 126 126 148
237 215 238 184 234 245 253 251 262 269 278 286 295 311 309 310 326 330 335 345 348 356 6 1 34 38 36 36 62 66 77 86 89 85 80 89 104 107 111 120 130 134 151 149
198 152 212 254 274 281 275 263 264 263 261 282 290 282 285 312 313 327 336 350 0 349 355 8 36 63 42 39 63 64 59 77 87 99 109 106 110 118 112 87 135 142 134 151
181 204 210 229 223 242 282 248 163 197 218 221 291 309 309 310 314 328 341 359 5 360 350 25 33 73 75 66 83 88 102 106 115 105 94 102 115 107 111 121 108 11 73 184